Fort Belvoir, VA

1:35 AM EDT on May 28, 2017 (GMT -0400)
Davison Army Air Field

Weather History for KDAA - March, 2014

Change the Weather History Date:

Sunday, March 16, 2014

  Actual Average Record
Temperature  
Mean Temperature 36 °F -  
Max Temperature 46 °F 52 °F 75 °F (2016)
Min Temperature 28 °F 33 °F 24 °F (2017)
Degree Days  
Heating Degree Days 28    
Moisture  
Dew Point 27 °F    
Average Humidity 76    
Maximum Humidity 100    
Minimum Humidity 30    
Precipitation  
Precipitation 0.04 in - - ()
Sea Level Pressure  
Sea Level Pressure 30.12 in    
Wind  
Wind Speed 4 mph (NNE)    
Max Wind Speed 9 mph    
Max Gust Speed -    
Visibility 5 miles    
Events Snow    
Averages and records for this station are not official NWS values.
T = Trace of Precipitation, MM = Missing Value Source: NWS Daily Summary

Daily Weather History Graph

Daily Weather History Graph

Search for Another Location

Airport or City:

Trip Planner

Search our weather history database for the weather conditions in past years. The results will help you decide how hot, cold, wet, or windy it might be!

Date:

Astronomy

Mar. 16, 2014 Rise Set
Actual Time 7:18 AM EDT 7:16 PM EDT
Civil Twilight 6:51 AM EDT 7:43 PM EDT
Nautical Twilight 6:21 AM EDT 8:14 PM EDT
Astronomical Twilight 5:49 AM EDT 8:45 PM EDT
Moon 7:31 PM EDT (3/16) 7:01 AM EDT (3/16)
Length of Visible Light 12h 51m
Length of Day
11h 58m
Full, 100% of the Moon is Illuminated
Mar 16
Full
Mar 16
Full
Mar 23
Last Quarter
Mar 30
New
Apr 7
First Quarter

Hourly Weather History & Observations

Time (EDT) Temp. Windchill Dew Point Humidity Pressure Visibility Wind Dir Wind Speed Gust Speed Precip Events Conditions
12:58 AM 41.4 °F - 25.2 °F 53% 30.08 in 10.0 mi Calm Calm - N/A   Clear
1:58 AM 39.0 °F - 24.3 °F 55% 30.09 in 10.0 mi Calm Calm - N/A   Clear
2:58 AM 37.9 °F - 23.5 °F 56% 30.12 in 10.0 mi Calm Calm - N/A   Clear
3:58 AM 37.2 °F 34.7 °F 27.1 °F 67% 30.11 in 10.0 mi NNW 3.5 mph - N/A   Clear
4:58 AM 39.9 °F - 25.7 °F 57% 30.13 in 10.0 mi North 2.3 mph - N/A   Clear
5:58 AM 36.7 °F - 26.2 °F 66% 30.15 in 10.0 mi NW 1.2 mph - N/A   Clear
6:58 AM 36.0 °F 33.3 °F 26.2 °F 68% 30.17 in 10.0 mi Variable 3.5 mph - N/A   Clear
7:58 AM 37.9 °F 35.5 °F 25.3 °F 60% 30.19 in 10.0 mi North 3.5 mph - N/A   Clear
8:58 AM 42.1 °F 39.2 °F 25.3 °F 52% 30.19 in 10.0 mi Variable 4.6 mph - N/A   Clear
9:58 AM 42.6 °F 39.0 °F 21.6 °F 43% 30.20 in 10.0 mi Variable 5.8 mph - N/A   Clear
10:58 AM 44.2 °F 41.8 °F 21.6 °F 41% 30.20 in 10.0 mi NNW 4.6 mph - N/A   Clear
11:58 AM 44.2 °F - 22.1 °F 42% 30.19 in 10.0 mi ENE 2.3 mph - N/A   Partly Cloudy
12:58 PM 45.0 °F - 20.3 °F 38% 30.20 in 10.0 mi Variable 2.3 mph - N/A   Partly Cloudy
1:58 PM 45.5 °F 44.2 °F 17.4 °F 33% 30.17 in 10.0 mi Variable 3.5 mph - N/A   Clear
2:58 PM 45.3 °F - 15.6 °F 30% 30.17 in 10.0 mi Variable 1.2 mph - N/A   Clear
3:58 PM 45.3 °F 42.3 °F 17.1 °F 32% 30.15 in 10.0 mi NNE 5.8 mph - N/A   Clear
4:58 PM 43.3 °F 38.6 °F 21.2 °F 41% 30.15 in 10.0 mi East 8.1 mph - N/A   Clear
5:41 PM 41.0 °F - 23.0 °F 49% 30.13 in 10.0 mi North 1.2 mph - N/A   Partly Cloudy
5:51 PM 41.0 °F 37.1 °F 24.8 °F 53% 30.12 in 10.0 mi Variable 5.8 mph - N/A   Clear
5:58 PM 40.8 °F 36.9 °F 24.6 °F 53% 30.13 in 10.0 mi Variable 5.8 mph - 0.00 in   Partly Cloudy
6:21 PM 39.2 °F 35.0 °F 26.6 °F 61% 30.12 in 10.0 mi Variable 5.8 mph - N/A   Clear
6:25 PM 39.2 °F 35.9 °F 26.6 °F 61% 30.12 in 10.0 mi Variable 4.6 mph - N/A   Clear
6:27 PM 39.2 °F 35.0 °F 26.6 °F 61% 30.12 in 10.0 mi Variable 5.8 mph - N/A   Clear
6:31 PM 37.4 °F 32.8 °F 26.6 °F 65% 30.12 in 10.0 mi Variable 5.8 mph - N/A   Clear
6:33 PM 37.4 °F 32.8 °F 26.6 °F 65% 30.12 in 10.0 mi Variable 5.8 mph - N/A   Partly Cloudy
6:48 PM 37.4 °F 33.8 °F 28.4 °F 70% 30.12 in 10.0 mi Variable 4.6 mph - N/A   Mostly Cloudy
6:58 PM 37.0 °F 33.3 °F 28.0 °F 70% 30.12 in 10.0 mi Variable 4.6 mph - 0.00 in   Mostly Cloudy
7:28 PM 35.6 °F 31.7 °F 28.4 °F 75% 30.10 in 6.0 mi NE 4.6 mph - N/A Snow Light Snow
7:33 PM 35.6 °F 29.2 °F 30.2 °F 81% 30.11 in 5.0 mi NNE 8.1 mph - N/A Snow Light Snow
7:53 PM 33.8 °F 30.8 °F 32.0 °F 93% 30.09 in 3.0 mi Variable 3.5 mph - N/A Snow Light Snow
7:58 PM 32.0 °F 26.4 °F 32.0 °F 100% 30.10 in 2.5 mi Variable 5.8 mph - 0.00 in Snow Light Snow
8:08 PM 32.0 °F 24.2 °F 32.0 °F 100% 30.10 in 2.0 mi NNE 9.2 mph - N/A Snow Light Snow
8:13 PM 32.0 °F 24.8 °F 32.0 °F 100% 30.10 in 1.8 mi NE 8.1 mph - N/A Snow Light Snow
8:18 PM 32.0 °F 24.8 °F 32.0 °F 100% 30.11 in 2.0 mi NNE 8.1 mph - N/A Snow Light Snow
8:23 PM 32.0 °F 24.8 °F 32.0 °F 100% 30.11 in 2.5 mi NNE 8.1 mph - N/A Snow Light Snow
8:33 PM 32.0 °F 26.4 °F 30.2 °F 93% 30.10 in 1.8 mi NNE 5.8 mph - N/A Snow Light Snow
8:38 PM 32.0 °F 25.6 °F 30.2 °F 93% 30.11 in 1.8 mi NNE 6.9 mph - N/A Snow Light Snow
8:43 PM 32.0 °F 26.4 °F 30.2 °F 93% 30.11 in 2.0 mi NNE 5.8 mph - N/A Snow Light Snow
8:48 PM 32.0 °F 24.2 °F 30.2 °F 93% 30.11 in 2.5 mi NE 9.2 mph - N/A Snow Light Snow
8:53 PM 32.0 °F 27.5 °F 30.2 °F 93% 30.11 in 3.0 mi Variable 4.6 mph - N/A Snow Light Snow
8:58 PM 31.6 °F 25.1 °F 29.3 °F 91% 30.13 in 3.0 mi Variable 6.9 mph - 0.01 in Snow Light Snow
9:03 PM 32.0 °F 27.5 °F 28.4 °F 87% 30.11 in 4.0 mi Variable 4.6 mph - N/A Snow Light Snow
9:08 PM 32.0 °F 27.5 °F 28.4 °F 87% 30.11 in 5.0 mi Variable 4.6 mph - N/A   Overcast
9:13 PM 32.0 °F 27.5 °F 28.4 °F 87% 30.12 in 4.0 mi Variable 4.6 mph - N/A Snow Light Snow
9:18 PM 32.0 °F 27.5 °F 28.4 °F 87% 30.12 in 2.5 mi Variable 4.6 mph - N/A Snow Light Snow
9:23 PM 32.0 °F 24.8 °F 28.4 °F 87% 30.11 in 1.8 mi NNE 8.1 mph - N/A Snow Light Snow
9:28 PM 32.0 °F 26.4 °F 28.4 °F 87% 30.11 in 1.5 mi Variable 5.8 mph - N/A Snow Light Snow
9:38 PM 32.0 °F 27.5 °F 28.4 °F 87% 30.12 in 2.0 mi Variable 4.6 mph - N/A Snow Light Snow
9:53 PM 30.2 °F 26.7 °F 28.4 °F 93% 30.11 in 1.5 mi Variable 3.5 mph - N/A Snow Light Snow
9:58 PM 30.0 °F 26.5 °F 28.0 °F 92% 30.12 in 1.5 mi NNE 3.5 mph - 0.02 in Snow Light Snow
10:13 PM 30.2 °F 26.7 °F 28.4 °F 93% 30.09 in 1.2 mi Variable 3.5 mph - N/A Snow Light Snow
10:18 PM 30.2 °F 25.4 °F 28.4 °F 93% 30.09 in 1.0 mi Variable 4.6 mph - N/A Snow Light Snow
10:28 PM 30.2 °F 24.3 °F 28.4 °F 93% 30.09 in 1.0 mi Variable 5.8 mph - N/A Snow Light Snow
10:33 PM 30.2 °F 25.4 °F 28.4 °F 93% 30.10 in 1.2 mi North 4.6 mph - N/A Snow Light Snow
10:38 PM 30.2 °F 24.3 °F 28.4 °F 93% 30.10 in 1.5 mi North 5.8 mph - N/A Snow Light Snow
10:48 PM 30.2 °F 26.7 °F 28.4 °F 93% 30.11 in 1.8 mi North 3.5 mph - N/A Snow Light Snow
10:53 PM 30.2 °F 25.4 °F 28.4 °F 93% 30.11 in 1.8 mi Variable 4.6 mph - N/A Snow Light Snow
10:58 PM 29.5 °F 25.9 °F 27.9 °F 94% 30.12 in 1.8 mi Variable 3.5 mph - 0.00 in Snow Light Snow
11:03 PM 30.2 °F 22.6 °F 28.4 °F 93% 30.10 in 1.5 mi NNE 8.1 mph - N/A Snow Light Snow
11:08 PM 28.4 °F 22.2 °F 28.4 °F 100% 30.10 in 1.2 mi Variable 5.8 mph - N/A Snow Light Snow
11:18 PM 30.2 °F 24.3 °F 28.4 °F 93% 30.11 in 1.8 mi Variable 5.8 mph - N/A Snow Light Snow
11:23 PM 30.2 °F 26.7 °F 28.4 °F 93% 30.10 in 1.8 mi Variable 3.5 mph - N/A Snow Light Snow
11:33 PM 30.2 °F 26.7 °F 28.4 °F 93% 30.11 in 2.0 mi Variable 3.5 mph - N/A Snow Light Snow
11:43 PM 30.2 °F 26.7 °F 28.4 °F 93% 30.09 in 2.0 mi North 3.5 mph - N/A Snow Light Snow
11:53 PM 28.4 °F 22.2 °F 28.4 °F 100% 30.08 in 1.8 mi NNE 5.8 mph - N/A Snow Light Snow
11:58 PM 29.3 °F 24.3 °F 27.9 °F 94% 30.08 in 1.8 mi Variable 4.6 mph - 0.01 in Snow Light Snow